Wautoma, WI

12:42 PM CDT on May 29, 2017 (GMT -0500)
Wautoma

Weather History for KY50 - March, 2013

Change the Weather History Date:

Saturday, March 9, 2013

  Actual Average (KPCZ) Record (KPCZ)
Temperature  
Mean Temperature 30 °F -  
Max Temperature 37 °F 39 °F 69 °F (1987)
Min Temperature 23 °F 18 °F -5 °F (1963)
Degree Days  
Heating Degree Days 35    
Moisture  
Dew Point 29 °F    
Average Humidity 87    
Maximum Humidity 100    
Minimum Humidity 70    
Precipitation  
Precipitation 0.34 in - - ()
Sea Level Pressure  
Sea Level Pressure 29.96 in    
Wind  
Wind Speed 0 mph (SE)    
Max Wind Speed 7 mph    
Max Gust Speed -    
Visibility 5 miles    
Events Rain , Snow    
Averages and records for this station are not official NWS values.
T = Trace of Precipitation, MM = Missing Value Source: NWS Daily Summary

Daily Weather History Graph

Daily Weather History Graph

Search for Another Location

Airport or City:

Trip Planner

Search our weather history database for the weather conditions in past years. The results will help you decide how hot, cold, wet, or windy it might be!

Date:

Astronomy

Mar. 09, 2013 Rise Set
Actual Time 6:19 AM CST 5:56 PM CST
Civil Twilight 5:50 AM CST 6:25 PM CST
Nautical Twilight 5:17 AM CST 6:58 PM CST
Astronomical Twilight 4:43 AM CST 7:32 PM CST
Moon 4:47 AM CST (3/9) 3:55 PM CST (3/9)
Length of Visible Light 12h 34m
Length of Day
11h 36m
Waning Crescent, 5% of the Moon is Illuminated
Mar 9
Waning Crescent
Mar 11
New
Mar 19
First Quarter
Mar 27
Full
Apr 2
Last Quarter

Hourly Weather History & Observations

Time (CST) Temp. Windchill Dew Point Humidity Pressure Visibility Wind Dir Wind Speed Gust Speed Precip Events Conditions
12:56 AM 23.0 °F - 19.0 °F 85% 30.27 in 8.0 mi Calm Calm - N/A   Clear
1:56 AM 25.2 °F - 21.0 °F 84% 30.24 in 8.0 mi Calm Calm - N/A   Clear
2:56 AM 26.1 °F - 21.0 °F 81% 30.20 in 10.0 mi Calm Calm - N/A   Clear
3:56 AM 27.1 °F - 21.0 °F 78% 30.19 in 10.0 mi Calm Calm - N/A   Clear
4:56 AM 28.0 °F - 21.0 °F 75% 30.19 in 10.0 mi Calm Calm - N/A   Scattered Clouds
5:56 AM 29.1 °F - 22.1 °F 75% 30.19 in 10.0 mi Calm Calm - N/A   Partly Cloudy
6:56 AM 29.1 °F - 22.1 °F 75% 30.17 in 9.0 mi Calm Calm - N/A   Overcast
7:56 AM 30.0 °F - 23.0 °F 75% 30.17 in 8.0 mi Calm Calm - N/A   Scattered Clouds
8:49 AM 32.0 °F - 24.8 °F 75% 30.11 in 3.0 mi Calm Calm - 0.00 in Snow Light Snow
8:56 AM 32.0 °F - 24.8 °F 75% 30.10 in 2.5 mi Calm Calm - N/A Snow Light Snow
8:59 AM 32.0 °F - 24.8 °F 75% 30.10 in 3.0 mi Calm Calm - 0.00 in Snow Light Snow
9:08 AM 32.0 °F - 26.6 °F 80% 30.09 in 2.5 mi Calm Calm - 0.00 in Snow Light Snow
9:16 AM 32.0 °F - 26.6 °F 80% 30.09 in 4.0 mi Calm Calm - 0.01 in Snow Light Snow
9:56 AM 32.9 °F - 28.0 °F 82% 30.08 in 6.0 mi Calm Calm - 0.01 in   Haze
10:56 AM 34.0 °F 28.0 °F 29.1 °F 82% 30.05 in 8.0 mi SE 6.9 mph - 0.00 in   Overcast
11:56 AM 34.9 °F 29.9 °F 29.1 °F 79% 30.02 in 9.0 mi SE 5.8 mph - N/A   Overcast
12:56 PM 36.9 °F 33.1 °F 29.1 °F 74% 29.99 in 10.0 mi SE 4.6 mph - N/A   Overcast
1:56 PM 36.9 °F - 28.0 °F 70% 29.96 in 10.0 mi Calm Calm - N/A   Mostly Cloudy
2:37 PM 37.4 °F - 28.4 °F 70% 29.91 in 10.0 mi Calm Calm - N/A   Mostly Cloudy
2:56 PM 36.0 °F - 29.1 °F 76% 29.93 in 7.0 mi Calm Calm - 0.00 in Rain Light Rain
3:10 PM 35.6 °F - 28.4 °F 75% 29.90 in 4.0 mi Calm Calm - 0.01 in Rain Light Rain
3:30 PM 35.6 °F - 30.2 °F 81% 29.90 in 2.5 mi Calm Calm - 0.04 in Rain Light Rain
3:36 PM 35.6 °F - 30.2 °F 81% 29.90 in 3.0 mi Calm Calm - 0.04 in Rain Light Rain
3:56 PM 34.0 °F - 31.1 °F 89% 29.91 in 3.0 mi Calm Calm - 0.06 in Rain Light Rain
4:03 PM 33.8 °F - 30.2 °F 87% 29.88 in 2.5 mi Calm Calm - 0.02 in Rain Light Rain
4:12 PM 33.8 °F - 30.2 °F 87% 29.87 in 1.8 mi Calm Calm - 0.04 in Rain Light Rain
4:25 PM 33.8 °F - 32.0 °F 93% 29.87 in 2.0 mi Calm Calm - 0.07 in Rain Light Rain
4:56 PM 32.9 °F - 32.0 °F 96% 29.88 in 2.5 mi Calm Calm - 0.10 in Rain Light Rain
5:06 PM 33.8 °F - 32.0 °F 93% 29.85 in 2.5 mi Calm Calm - 0.01 in Rain Light Rain
5:09 PM 33.8 °F - 32.0 °F 93% 29.85 in 3.0 mi Calm Calm - 0.01 in Rain Light Rain
5:32 PM 33.8 °F - 32.0 °F 93% 29.85 in 3.0 mi Calm Calm - 0.02 in Rain Light Rain
5:43 PM 33.8 °F - 32.0 °F 93% 29.85 in 3.0 mi Calm Calm - 0.02 in Rain Light Rain
5:56 PM 33.8 °F - 32.0 °F 93% 29.85 in 2.5 mi Calm Calm - N/A Rain Light Rain
6:28 PM 33.8 °F - 32.0 °F 93% 29.85 in 3.0 mi Calm Calm - 0.03 in Rain Light Rain
6:35 PM 33.8 °F - 32.0 °F 93% 29.85 in 3.0 mi Calm Calm - 0.03 in Rain Light Rain
6:42 PM 33.8 °F - 32.0 °F 93% 29.85 in 2.5 mi Calm Calm - 0.04 in Rain Light Rain
6:56 PM 32.9 °F - 32.0 °F 96% 29.87 in 2.5 mi Calm Calm - 0.07 in Rain Light Rain
7:56 PM 32.9 °F - 32.9 °F 100% 29.85 in 2.0 mi Calm Calm - 0.08 in Rain Light Rain
8:56 PM 33.8 °F - 33.8 °F 100% 29.84 in 2.0 mi Calm Calm - N/A Rain Light Rain
9:01 PM 33.8 °F - 33.8 °F 100% 29.84 in 1.8 mi Calm Calm - 0.00 in Rain Light Rain
9:18 PM 33.8 °F - 33.8 °F 100% 29.83 in 1.5 mi Calm Calm - 0.01 in Rain Light Rain
9:43 PM 33.8 °F - 33.8 °F 100% 29.82 in 2.0 mi Calm Calm - 0.01 in Rain Light Rain
9:56 PM 34.0 °F - 32.9 °F 96% 29.84 in 2.5 mi Calm Calm - 0.01 in Rain Light Rain
10:23 PM 33.8 °F - 33.8 °F 100% 29.82 in 3.0 mi Calm Calm - 0.01 in Rain Light Rain
10:29 PM 33.8 °F - 33.8 °F 100% 29.81 in 3.0 mi Calm Calm - 0.01 in Rain Light Rain
10:56 PM 34.0 °F - 32.9 °F 96% 29.83 in 3.0 mi Calm Calm - 0.01 in Rain Light Rain
11:21 PM 33.8 °F - 33.8 °F 100% 29.80 in 2.5 mi Calm Calm - 0.01 in Rain Light Rain
11:56 PM 33.8 °F - 33.8 °F 100% 29.78 in 2.0 mi Calm Calm - N/A Rain Light Rain